VTD105 UWSG-UWLL

Flight info

Callsign VTD105
Flight time 1h 41m
Altitude 7000
Route OGRER T789 NEPNI
Aircraft C172/L-SDGY/C

Departure

Time 2026-05-07 03:18
Airport Gagarin International Airport (UWSG)

Arrival

Time 2026-05-07 05:00
Airport Ulyanovsk Baratayevka Airport (UWLL)
Time Latitude Longitude Altitude Speed Heading
2026-05-07 02:40 51.71561 46.16960 4 ft 0 kts 182°
2026-05-07 03:10 51.71556 46.16960 4 ft 2 kts 180°
2026-05-07 03:10 51.71531 46.16936 4 ft 6 kts 258°
2026-05-07 03:10 51.71532 46.16842 4 ft 9 kts 272°
2026-05-07 03:11 51.71535 46.16722 4 ft 11 kts 272°
2026-05-07 03:11 51.71529 46.16595 4 ft 9 kts 230°
2026-05-07 03:11 51.71468 46.16574 4 ft 9 kts 182°
2026-05-07 03:11 51.71404 46.16570 4 ft 5 kts 182°
2026-05-07 03:12 51.71396 46.16569 4 ft 0 kts 181°
2026-05-07 03:13 51.71388 46.16569 4 ft 4 kts 181°
2026-05-07 03:14 51.71328 46.16566 4 ft 11 kts 182°
2026-05-07 03:14 51.71281 46.16464 4 ft 14 kts 271°
2026-05-07 03:14 51.71287 46.16114 4 ft 16 kts 272°
2026-05-07 03:15 51.71291 46.15931 4 ft 16 kts 272°
2026-05-07 03:15 51.71296 46.15739 4 ft 17 kts 272°
2026-05-07 03:15 51.71300 46.15546 4 ft 17 kts 272°
2026-05-07 03:15 51.71305 46.15350 4 ft 17 kts 272°
2026-05-07 03:16 51.71314 46.15155 4 ft 17 kts 280°
2026-05-07 03:16 51.71332 46.14996 4 ft 10 kts 218°
2026-05-07 03:16 51.71311 46.15022 4 ft 0 kts 91°
2026-05-07 03:17 51.71311 46.15023 4 ft 0 kts 91°
2026-05-07 03:17 51.71306 46.15260 4 ft 51 kts 92°
2026-05-07 03:17 51.71286 46.16023 93 ft 74 kts 89°
2026-05-07 03:18 51.71250 46.16806 318 ft 70 kts 89°
2026-05-07 03:18 51.71242 46.17613 476 ft 76 kts 84°
2026-05-07 03:18 51.71240 46.18515 662 ft 81 kts 86°
2026-05-07 03:18 51.71224 46.19430 883 ft 83 kts 85°
2026-05-07 03:19 51.71219 46.20335 1123 ft 80 kts 85°
2026-05-07 03:19 51.71198 46.21231 1359 ft 78 kts 84°
2026-05-07 03:19 51.71186 46.22111 1573 ft 78 kts 84°
2026-05-07 03:19 51.71174 46.22978 1772 ft 80 kts 83°
2026-05-07 03:20 51.71158 46.23875 1990 ft 79 kts 83°
2026-05-07 03:20 51.71152 46.24766 2185 ft 80 kts 83°
2026-05-07 03:20 51.71140 46.25649 2405 ft 78 kts 81°
2026-05-07 03:20 51.71204 46.26507 2582 ft 74 kts 48°
2026-05-07 03:21 51.71672 46.26657 2736 ft 76 kts 340°
2026-05-07 03:21 51.72156 46.26379 2965 ft 72 kts 347°
2026-05-07 03:21 51.72620 46.26120 3188 ft 68 kts 344°
2026-05-07 03:21 51.73062 46.25854 3372 ft 68 kts 345°
2026-05-07 03:22 51.73506 46.25596 3554 ft 69 kts 345°
2026-05-07 03:22 51.73953 46.25323 3749 ft 68 kts 347°
2026-05-07 03:22 51.74399 46.25067 3932 ft 69 kts 347°
2026-05-07 03:22 51.74859 46.24796 4118 ft 70 kts 346°
2026-05-07 03:23 51.75320 46.24525 4288 ft 73 kts 345°
2026-05-07 03:23 51.75809 46.24242 4467 ft 74 kts 347°
2026-05-07 03:23 51.76293 46.23962 4637 ft 76 kts 346°
2026-05-07 03:23 51.76791 46.23733 4817 ft 74 kts
2026-05-07 03:24 51.77300 46.23863 4991 ft 73 kts 12°
2026-05-07 03:24 51.77806 46.24007 5157 ft 75 kts 11°
2026-05-07 03:24 51.78315 46.24164 5331 ft 74 kts 22°
2026-05-07 03:24 51.78781 46.24520 5506 ft 73 kts 24°
2026-05-07 03:25 51.79250 46.24873 5659 ft 76 kts 25°
2026-05-07 03:25 51.79706 46.25245 5857 ft 71 kts 25°
2026-05-07 03:25 51.80146 46.25609 6017 ft 72 kts 25°
2026-05-07 03:25 51.80586 46.25960 6174 ft 71 kts 25°
2026-05-07 03:26 51.81033 46.26321 6333 ft 71 kts 25°
2026-05-07 03:26 51.81480 46.26682 6479 ft 73 kts 25°
2026-05-07 03:26 51.81914 46.27060 6644 ft 71 kts 23°
2026-05-07 03:26 51.82365 46.27404 6791 ft 72 kts 24°
2026-05-07 03:27 51.82818 46.27776 6899 ft 77 kts 24°
2026-05-07 03:27 51.83349 46.28203 6912 ft 90 kts 25°
2026-05-07 03:27 51.83919 46.28671 6927 ft 94 kts 25°
2026-05-07 03:27 51.84509 46.29179 6922 ft 98 kts 27°
2026-05-07 03:28 51.85116 46.29716 6926 ft 100 kts 26°
2026-05-07 03:28 51.85744 46.30233 6913 ft 101 kts 25°
2026-05-07 03:28 51.86373 46.30769 6886 ft 104 kts 27°
2026-05-07 03:28 51.87003 46.31304 6913 ft 101 kts 24°
2026-05-07 03:29 51.87638 46.31818 6905 ft 102 kts 26°
2026-05-07 03:29 51.88262 46.32331 6933 ft 100 kts 25°
2026-05-07 03:29 51.88888 46.32830 6943 ft 100 kts 23°
2026-05-07 03:29 51.89537 46.33281 6914 ft 102 kts 21°
2026-05-07 03:30 51.90192 46.33715 6906 ft 102 kts 22°
2026-05-07 03:30 51.90850 46.34171 6898 ft 103 kts 23°
2026-05-07 03:30 51.91498 46.34663 6907 ft 102 kts 25°
2026-05-07 03:30 51.92120 46.35171 6913 ft 101 kts 26°
2026-05-07 03:31 51.92748 46.35688 6924 ft 100 kts 25°
2026-05-07 03:31 51.93378 46.36181 6922 ft 101 kts 24°
2026-05-07 03:31 51.94011 46.36675 6929 ft 100 kts 24°
2026-05-07 03:31 51.94644 46.37154 6941 ft 100 kts 23°
2026-05-07 03:32 51.95269 46.37629 6940 ft 100 kts 24°
2026-05-07 03:32 51.95893 46.38126 6949 ft 98 kts 25°
2026-05-07 03:32 51.96502 46.38619 6940 ft 98 kts 25°
2026-05-07 03:32 51.97113 46.39103 6937 ft 97 kts 25°
2026-05-07 03:33 51.97717 46.39606 6937 ft 99 kts 26°
2026-05-07 03:33 51.98335 46.40086 6933 ft 100 kts 24°
2026-05-07 03:33 51.98978 46.40571 6920 ft 101 kts 24°
2026-05-07 03:33 51.99604 46.41091 6937 ft 100 kts 26°
2026-05-07 03:34 52.00212 46.41615 6952 ft 100 kts 26°
2026-05-07 03:34 52.00835 46.42135 6945 ft 101 kts 25°
2026-05-07 03:34 52.01467 46.42638 6944 ft 101 kts 25°
2026-05-07 03:34 52.02100 46.43131 6944 ft 101 kts 23°
2026-05-07 03:35 52.02739 46.43594 6952 ft 101 kts 22°
2026-05-07 03:35 52.03388 46.44063 6946 ft 101 kts 23°
2026-05-07 03:35 52.04028 46.44529 6952 ft 101 kts 22°
2026-05-07 03:35 52.04669 46.44996 6947 ft 101 kts 24°
2026-05-07 03:36 52.05313 46.45507 6925 ft 103 kts 25°
2026-05-07 03:36 52.05939 46.46053 6930 ft 102 kts 27°
2026-05-07 03:36 52.06580 46.46560 6917 ft 103 kts 24°
2026-05-07 03:36 52.07223 46.47055 6911 ft 103 kts 24°
2026-05-07 03:37 52.07871 46.47564 6910 ft 102 kts 24°
2026-05-07 03:37 52.08511 46.48075 6910 ft 102 kts 25°
2026-05-07 03:37 52.09139 46.48583 6910 ft 102 kts 25°
2026-05-07 03:37 52.09772 46.49102 6910 ft 102 kts 25°
2026-05-07 03:38 52.10410 46.49627 6913 ft 102 kts 25°
2026-05-07 03:38 52.11045 46.50153 6914 ft 102 kts 25°
2026-05-07 03:38 52.11673 46.50676 6914 ft 102 kts 25°
2026-05-07 03:38 52.12310 46.51208 6914 ft 102 kts 25°
2026-05-07 03:39 52.12947 46.51743 6914 ft 102 kts 25°
2026-05-07 03:39 52.13580 46.52275 6914 ft 102 kts 26°
2026-05-07 03:39 52.14213 46.52806 6914 ft 102 kts 26°
2026-05-07 03:39 52.14847 46.53341 6914 ft 102 kts 26°
2026-05-07 03:40 52.15481 46.53875 6914 ft 102 kts 26°
2026-05-07 03:40 52.16118 46.54412 6914 ft 102 kts 26°
2026-05-07 03:40 52.16744 46.54941 6914 ft 102 kts 26°
2026-05-07 03:40 52.17385 46.55482 6914 ft 102 kts 26°
2026-05-07 03:41 52.18012 46.56012 6914 ft 102 kts 26°
2026-05-07 03:41 52.18644 46.56547 6914 ft 102 kts 26°
2026-05-07 03:41 52.19284 46.57088 6914 ft 102 kts 26°
2026-05-07 03:41 52.19916 46.57623 6914 ft 102 kts 26°
2026-05-07 03:42 52.20549 46.58160 6914 ft 102 kts 26°
2026-05-07 03:42 52.21182 46.58696 6914 ft 102 kts 26°
2026-05-07 03:42 52.21813 46.59231 6914 ft 102 kts 26°
2026-05-07 03:42 52.22445 46.59766 6913 ft 102 kts 26°
2026-05-07 03:43 52.23074 46.60300 6913 ft 102 kts 26°
2026-05-07 03:43 52.23711 46.60841 6913 ft 102 kts 26°
2026-05-07 03:43 52.24342 46.61377 6913 ft 102 kts 26°
2026-05-07 03:43 52.24975 46.61914 6913 ft 102 kts 26°
2026-05-07 03:44 52.25609 46.62451 6913 ft 103 kts 26°
2026-05-07 03:44 52.26249 46.62994 6913 ft 104 kts 26°
2026-05-07 03:44 52.26893 46.63543 6913 ft 104 kts 26°
2026-05-07 03:44 52.27532 46.64086 6913 ft 105 kts 26°
2026-05-07 03:45 52.28180 46.64637 6913 ft 105 kts 26°
2026-05-07 03:45 52.28828 46.65189 6914 ft 105 kts 27°
2026-05-07 03:45 52.29487 46.65750 6914 ft 105 kts 27°
2026-05-07 03:45 52.30134 46.66301 6914 ft 105 kts 27°
2026-05-07 03:46 52.30782 46.66853 6914 ft 105 kts 27°
2026-05-07 03:46 52.31436 46.67410 6914 ft 105 kts 27°
2026-05-07 03:46 52.32081 46.67959 6914 ft 105 kts 27°
2026-05-07 03:46 52.32737 46.68519 6914 ft 105 kts 27°
2026-05-07 03:47 52.33387 46.69073 6914 ft 105 kts 27°
2026-05-07 03:47 52.34036 46.69627 6914 ft 105 kts 27°
2026-05-07 03:47 52.34688 46.70183 6914 ft 105 kts 27°
2026-05-07 03:47 52.35340 46.70740 6914 ft 105 kts 27°
2026-05-07 03:48 52.35994 46.71299 6914 ft 105 kts 27°
2026-05-07 03:48 52.36642 46.71852 6914 ft 105 kts 27°
2026-05-07 03:48 52.37294 46.72409 6914 ft 105 kts 27°
2026-05-07 03:48 52.37947 46.72967 6914 ft 105 kts 27°
2026-05-07 03:49 52.38595 46.73521 6913 ft 105 kts 27°
2026-05-07 03:49 52.39241 46.74074 6913 ft 105 kts 27°
2026-05-07 03:49 52.39891 46.74630 6913 ft 105 kts 27°
2026-05-07 03:49 52.40542 46.75187 6914 ft 105 kts 27°
2026-05-07 03:50 52.41197 46.75745 6913 ft 105 kts 27°
2026-05-07 03:50 52.41839 46.76296 6913 ft 105 kts 27°
2026-05-07 03:50 52.42491 46.76855 6913 ft 105 kts 27°
2026-05-07 03:50 52.43134 46.77407 6913 ft 105 kts 27°
2026-05-07 03:51 52.43778 46.77959 6913 ft 105 kts 27°
2026-05-07 03:51 52.44429 46.78517 6913 ft 105 kts 27°
2026-05-07 03:51 52.45074 46.79071 6913 ft 105 kts 27°
2026-05-07 03:51 52.45721 46.79626 6913 ft 105 kts 27°
2026-05-07 03:52 52.46361 46.80175 6913 ft 105 kts 27°
2026-05-07 03:52 52.47009 46.80732 6913 ft 105 kts 27°
2026-05-07 03:52 52.47650 46.81283 6913 ft 105 kts 27°
2026-05-07 03:52 52.48298 46.81840 6913 ft 105 kts 27°
2026-05-07 03:53 52.48939 46.82391 6913 ft 105 kts 27°
2026-05-07 03:53 52.49591 46.82952 6913 ft 105 kts 27°
2026-05-07 03:53 52.50230 46.83501 6913 ft 105 kts 27°
2026-05-07 03:53 52.50877 46.84058 6913 ft 105 kts 27°
2026-05-07 03:54 52.51519 46.84610 6913 ft 104 kts 27°
2026-05-07 03:54 52.52165 46.85166 6913 ft 104 kts 27°
2026-05-07 03:54 52.52811 46.85722 6913 ft 104 kts 27°
2026-05-07 03:54 52.53455 46.86278 6913 ft 104 kts 27°
2026-05-07 03:55 52.54098 46.86831 6913 ft 104 kts 27°
2026-05-07 03:55 52.54747 46.87391 6913 ft 104 kts 27°
2026-05-07 03:55 52.55390 46.87945 6913 ft 104 kts 27°
2026-05-07 03:55 52.56035 46.88502 6913 ft 104 kts 27°
2026-05-07 03:56 52.56681 46.89059 6913 ft 104 kts 27°
2026-05-07 03:56 52.57319 46.89610 6913 ft 104 kts 27°
2026-05-07 03:56 52.57966 46.90168 6913 ft 104 kts 27°
2026-05-07 03:56 52.58606 46.90721 6913 ft 104 kts 27°
2026-05-07 03:57 52.59255 46.91281 6913 ft 104 kts 27°
2026-05-07 03:57 52.59893 46.91833 6913 ft 104 kts 27°
2026-05-07 03:57 52.60541 46.92393 6913 ft 104 kts 27°
2026-05-07 03:57 52.61181 46.92947 6913 ft 104 kts 27°
2026-05-07 03:58 52.61826 46.93504 6912 ft 104 kts 27°
2026-05-07 03:58 52.62468 46.94060 6912 ft 104 kts 27°
2026-05-07 03:58 52.63114 46.94620 6912 ft 104 kts 27°
2026-05-07 03:58 52.63755 46.95174 6912 ft 104 kts 27°
2026-05-07 03:59 52.64403 46.95736 6912 ft 104 kts 27°
2026-05-07 03:59 52.65042 46.96289 6912 ft 104 kts 27°
2026-05-07 03:59 52.65688 46.96849 6912 ft 104 kts 27°
2026-05-07 03:59 52.66331 46.97407 6912 ft 104 kts 27°
2026-05-07 04:00 52.66974 46.97965 6912 ft 104 kts 27°
2026-05-07 04:00 52.67614 46.98521 6912 ft 104 kts 27°
2026-05-07 04:00 52.68257 46.99078 6912 ft 104 kts 27°
2026-05-07 04:00 52.68897 46.99634 6912 ft 104 kts 27°
2026-05-07 04:01 52.69544 47.00196 6912 ft 104 kts 27°
2026-05-07 04:01 52.70180 47.00749 6912 ft 104 kts 27°
2026-05-07 04:01 52.70828 47.01312 6912 ft 104 kts 27°
2026-05-07 04:01 52.71465 47.01866 6912 ft 104 kts 27°
2026-05-07 04:02 52.72111 47.02428 6912 ft 104 kts 27°
2026-05-07 04:02 52.72755 47.02988 6912 ft 104 kts 27°
2026-05-07 04:02 52.73391 47.03542 6912 ft 104 kts 27°
2026-05-07 04:02 52.74034 47.04102 6912 ft 104 kts 27°
2026-05-07 04:03 52.74679 47.04663 6912 ft 104 kts 27°
2026-05-07 04:03 52.75318 47.05220 6910 ft 105 kts 27°
2026-05-07 04:03 52.75973 47.05790 6912 ft 106 kts 28°
2026-05-07 04:03 52.76623 47.06357 6912 ft 107 kts 28°
2026-05-07 04:04 52.77278 47.06929 6912 ft 107 kts 28°
2026-05-07 04:04 52.77946 47.07511 6912 ft 107 kts 28°
2026-05-07 04:04 52.78609 47.08090 6912 ft 108 kts 28°
2026-05-07 04:04 52.79287 47.08682 6912 ft 108 kts 28°
2026-05-07 04:05 52.79955 47.09266 6912 ft 108 kts 28°
2026-05-07 04:05 52.80615 47.09842 6912 ft 108 kts 28°
2026-05-07 04:05 52.81276 47.10420 6912 ft 108 kts 28°
2026-05-07 04:05 52.81947 47.11007 6912 ft 108 kts 28°
2026-05-07 04:06 52.82612 47.11589 6912 ft 108 kts 28°
2026-05-07 04:06 52.83276 47.12170 6912 ft 108 kts 28°
2026-05-07 04:06 52.83938 47.12750 6912 ft 108 kts 28°
2026-05-07 04:06 52.84602 47.13331 6912 ft 108 kts 28°
2026-05-07 04:07 52.85272 47.13918 6912 ft 108 kts 28°
2026-05-07 04:07 52.85933 47.14498 6912 ft 108 kts 28°
2026-05-07 04:07 52.86602 47.15084 6912 ft 108 kts 28°
2026-05-07 04:07 52.87266 47.15667 6912 ft 108 kts 28°
2026-05-07 04:08 52.87939 47.16257 6912 ft 108 kts 28°
2026-05-07 04:08 52.88605 47.16842 6912 ft 108 kts 28°
2026-05-07 04:08 52.89274 47.17429 6912 ft 108 kts 28°
2026-05-07 04:08 52.89931 47.18006 6912 ft 108 kts 28°
2026-05-07 04:09 52.90597 47.18592 6912 ft 108 kts 28°
2026-05-07 04:09 52.91265 47.19179 6912 ft 108 kts 28°
2026-05-07 04:09 52.91931 47.19764 6912 ft 108 kts 28°
2026-05-07 04:09 52.92595 47.20349 6911 ft 108 kts 28°
2026-05-07 04:10 52.93255 47.20930 6911 ft 108 kts 28°
2026-05-07 04:10 52.93917 47.21512 6911 ft 108 kts 28°
2026-05-07 04:10 52.94580 47.22096 6911 ft 108 kts 28°
2026-05-07 04:10 52.95248 47.22685 6915 ft 108 kts 28°
2026-05-07 04:11 52.95900 47.23259 6935 ft 106 kts 28°
2026-05-07 04:11 52.96558 47.23838 6938 ft 107 kts 28°
2026-05-07 04:11 52.97213 47.24416 6938 ft 107 kts 28°
2026-05-07 04:11 52.97877 47.25002 6938 ft 107 kts 28°
2026-05-07 04:12 52.98536 47.25582 6938 ft 107 kts 28°
2026-05-07 04:12 52.99194 47.26162 6938 ft 107 kts 28°
2026-05-07 04:12 52.99850 47.26742 6938 ft 107 kts 28°
2026-05-07 04:12 53.00506 47.27322 6938 ft 107 kts 28°
2026-05-07 04:13 53.01170 47.27909 6938 ft 107 kts 28°
2026-05-07 04:13 53.01820 47.28484 6938 ft 107 kts 28°
2026-05-07 04:13 53.02477 47.29065 6938 ft 107 kts 28°
2026-05-07 04:13 53.03131 47.29644 6938 ft 107 kts 28°
2026-05-07 04:14 53.03786 47.30223 6938 ft 107 kts 28°
2026-05-07 04:14 53.04442 47.30804 6938 ft 107 kts 28°
2026-05-07 04:14 53.05098 47.31384 6938 ft 107 kts 28°
2026-05-07 04:14 53.05757 47.31969 6938 ft 107 kts 28°
2026-05-07 04:15 53.06411 47.32549 6938 ft 107 kts 28°
2026-05-07 04:15 53.07068 47.33130 6938 ft 107 kts 28°
2026-05-07 04:15 53.07720 47.33709 6938 ft 107 kts 28°
2026-05-07 04:15 53.08378 47.34293 6938 ft 107 kts 28°
2026-05-07 04:16 53.09027 47.34869 6938 ft 107 kts 28°
2026-05-07 04:16 53.09681 47.35449 6938 ft 107 kts 28°
2026-05-07 04:16 53.10339 47.36033 6940 ft 107 kts 28°
2026-05-07 04:16 53.10992 47.36613 6940 ft 107 kts 28°
2026-05-07 04:17 53.11654 47.37201 6941 ft 107 kts 28°
2026-05-07 04:17 53.12313 47.37787 6940 ft 107 kts 28°
2026-05-07 04:17 53.12969 47.38370 6940 ft 107 kts 28°
2026-05-07 04:17 53.13628 47.38957 6940 ft 107 kts 28°
2026-05-07 04:18 53.14287 47.39543 6940 ft 107 kts 28°
2026-05-07 04:18 53.14947 47.40130 6940 ft 107 kts 28°
2026-05-07 04:18 53.15605 47.40717 6940 ft 107 kts 28°
2026-05-07 04:18 53.16267 47.41306 6940 ft 107 kts 28°
2026-05-07 04:19 53.16926 47.41893 6940 ft 107 kts 28°
2026-05-07 04:19 53.17585 47.42480 6940 ft 107 kts 28°
2026-05-07 04:19 53.18242 47.43066 6940 ft 107 kts 28°
2026-05-07 04:19 53.18907 47.43659 6940 ft 107 kts 28°
2026-05-07 04:20 53.19563 47.44244 6940 ft 107 kts 28°
2026-05-07 04:20 53.20222 47.44833 6940 ft 107 kts 28°
2026-05-07 04:20 53.20880 47.45419 6940 ft 107 kts 28°
2026-05-07 04:21 53.22201 47.46600 6940 ft 107 kts 28°
2026-05-07 04:21 53.22861 47.47189 6940 ft 107 kts 28°
2026-05-07 04:21 53.23519 47.47777 6940 ft 107 kts 28°
2026-05-07 04:21 53.24174 47.48363 6940 ft 107 kts 28°
2026-05-07 04:22 53.24837 47.48956 6940 ft 107 kts 28°
2026-05-07 04:22 53.25497 47.49546 6938 ft 108 kts 28°
2026-05-07 04:22 53.26166 47.50147 6940 ft 109 kts 28°
2026-05-07 04:22 53.26843 47.50754 6940 ft 110 kts 28°
2026-05-07 04:23 53.27519 47.51359 6940 ft 110 kts 28°
2026-05-07 04:23 53.28194 47.51963 6940 ft 111 kts 28°
2026-05-07 04:23 53.28873 47.52571 6940 ft 111 kts 28°
2026-05-07 04:23 53.29554 47.53182 6940 ft 111 kts 28°
2026-05-07 04:24 53.30242 47.53799 6940 ft 111 kts 28°
2026-05-07 04:24 53.30920 47.54408 6940 ft 111 kts 28°
2026-05-07 04:24 53.31603 47.55020 6940 ft 111 kts 28°
2026-05-07 04:24 53.32287 47.55634 6940 ft 111 kts 28°
2026-05-07 04:25 53.32969 47.56247 6940 ft 111 kts 28°
2026-05-07 04:25 53.33655 47.56864 6940 ft 111 kts 28°
2026-05-07 04:25 53.34333 47.57473 6940 ft 111 kts 28°
2026-05-07 04:25 53.35019 47.58091 6940 ft 111 kts 28°
2026-05-07 04:26 53.35699 47.58704 6940 ft 111 kts 27°
2026-05-07 04:26 53.36379 47.59317 6940 ft 111 kts 27°
2026-05-07 04:26 53.37059 47.59928 6940 ft 111 kts 27°
2026-05-07 04:26 53.37741 47.60542 6940 ft 111 kts 27°
2026-05-07 04:27 53.38420 47.61154 6940 ft 111 kts 27°
2026-05-07 04:27 53.39098 47.61764 6940 ft 111 kts 27°
2026-05-07 04:27 53.39776 47.62376 6940 ft 111 kts 27°
2026-05-07 04:27 53.40453 47.62986 6940 ft 111 kts 27°
2026-05-07 04:28 53.41130 47.63598 6940 ft 111 kts 27°
2026-05-07 04:28 53.41813 47.64213 6940 ft 111 kts 27°
2026-05-07 04:28 53.42492 47.64827 6940 ft 111 kts 27°
2026-05-07 04:28 53.43164 47.65434 6940 ft 111 kts 28°
2026-05-07 04:29 53.43851 47.66054 6940 ft 111 kts 28°
2026-05-07 04:29 53.44527 47.66666 6940 ft 111 kts 28°
2026-05-07 04:29 53.45202 47.67276 6940 ft 111 kts 28°
2026-05-07 04:29 53.45881 47.67890 6940 ft 111 kts 28°
2026-05-07 04:30 53.46563 47.68507 6940 ft 111 kts 28°
2026-05-07 04:30 53.47240 47.69120 6940 ft 111 kts 28°
2026-05-07 04:30 53.47937 47.69667 6940 ft 111 kts 22°
2026-05-07 04:30 53.48656 47.70161 6940 ft 111 kts 22°
2026-05-07 04:31 53.49366 47.70640 6940 ft 111 kts 21°
2026-05-07 04:31 53.50088 47.71122 6940 ft 111 kts 21°
2026-05-07 04:31 53.50794 47.71608 6940 ft 111 kts 24°
2026-05-07 04:31 53.51505 47.72141 6940 ft 111 kts 24°
2026-05-07 04:32 53.52203 47.72659 6940 ft 111 kts 23°
2026-05-07 04:32 53.52911 47.73173 6940 ft 111 kts 23°
2026-05-07 04:32 53.53621 47.73682 6940 ft 111 kts 22°
2026-05-07 04:32 53.54335 47.74186 6940 ft 111 kts 22°
2026-05-07 04:33 53.55045 47.74682 6940 ft 111 kts 22°
2026-05-07 04:33 53.55764 47.75180 6939 ft 111 kts 22°
2026-05-07 04:33 53.56473 47.75665 6940 ft 111 kts 22°
2026-05-07 04:33 53.57193 47.76157 6940 ft 111 kts 22°
2026-05-07 04:34 53.57908 47.76669 6940 ft 111 kts 22°
2026-05-07 04:34 53.58624 47.77153 6952 ft 111 kts 22°
2026-05-07 04:34 53.59343 47.77632 6945 ft 111 kts 21°
2026-05-07 04:34 53.60062 47.78095 6951 ft 111 kts 21°
2026-05-07 04:35 53.60782 47.78566 6949 ft 111 kts 21°
2026-05-07 04:35 53.61502 47.79040 6952 ft 111 kts 21°
2026-05-07 04:35 53.62225 47.79502 6953 ft 111 kts 21°
2026-05-07 04:35 53.62947 47.79987 6954 ft 111 kts 22°
2026-05-07 04:36 53.63663 47.80457 6958 ft 111 kts 21°
2026-05-07 04:36 53.64383 47.80938 6956 ft 111 kts 22°
2026-05-07 04:36 53.65102 47.81425 6958 ft 111 kts 22°
2026-05-07 04:36 53.65823 47.81909 6961 ft 111 kts 22°
2026-05-07 04:37 53.66547 47.82394 6961 ft 111 kts 22°
2026-05-07 04:37 53.67273 47.82869 6958 ft 111 kts 21°
2026-05-07 04:37 53.67989 47.83344 6967 ft 111 kts 22°
2026-05-07 04:37 53.68709 47.83837 6963 ft 111 kts 23°
2026-05-07 04:38 53.69425 47.84321 6964 ft 111 kts 22°
2026-05-07 04:38 53.70132 47.84831 6969 ft 111 kts 24°
2026-05-07 04:38 53.70847 47.85351 6891 ft 113 kts 22°
2026-05-07 04:38 53.71573 47.85836 6776 ft 112 kts 23°
2026-05-07 04:39 53.72287 47.86375 6645 ft 112 kts 25°
2026-05-07 04:39 53.73002 47.86859 6538 ft 111 kts 19°
2026-05-07 04:39 53.73740 47.87298 6404 ft 112 kts 21°
2026-05-07 04:39 53.74468 47.87741 6288 ft 112 kts 20°
2026-05-07 04:40 53.75186 47.88228 6162 ft 112 kts 24°
2026-05-07 04:40 53.75898 47.88758 6059 ft 111 kts 22°
2026-05-07 04:40 53.76619 47.89264 5939 ft 112 kts 23°
2026-05-07 04:40 53.77309 47.89839 5859 ft 110 kts 26°
2026-05-07 04:41 53.77981 47.90465 5796 ft 108 kts 22°
2026-05-07 04:41 53.78681 47.90905 5747 ft 108 kts 18°
2026-05-07 04:41 53.79392 47.91333 5701 ft 108 kts 19°
2026-05-07 04:41 53.80099 47.91779 5632 ft 110 kts 18°
2026-05-07 04:42 53.80820 47.92222 5543 ft 111 kts 18°
2026-05-07 04:42 53.81549 47.92680 5434 ft 112 kts 20°
2026-05-07 04:42 53.82274 47.93167 5330 ft 112 kts 21°
2026-05-07 04:42 53.82998 47.93667 5202 ft 112 kts 18°
2026-05-07 04:43 53.83722 47.94124 5086 ft 112 kts 21°
2026-05-07 04:43 53.84438 47.94604 5014 ft 110 kts 19°
2026-05-07 04:43 53.85159 47.95070 4993 ft 111 kts 20°
2026-05-07 04:43 53.85881 47.95554 5013 ft 110 kts 21°
2026-05-07 04:44 53.86577 47.96043 5055 ft 108 kts 21°
2026-05-07 04:44 53.87290 47.96540 5033 ft 112 kts 21°
2026-05-07 04:44 53.88006 47.97029 5010 ft 112 kts 20°
2026-05-07 04:44 53.88740 47.97489 5007 ft 111 kts 19°
2026-05-07 04:45 53.89458 47.97951 5006 ft 110 kts 20°
2026-05-07 04:45 53.90180 47.98404 5017 ft 109 kts 18°
2026-05-07 04:45 53.90889 47.98844 5007 ft 110 kts 19°
2026-05-07 04:45 53.91600 47.99324 5023 ft 109 kts 22°
2026-05-07 04:46 53.92303 47.99836 5023 ft 110 kts 21°
2026-05-07 04:46 53.93014 48.00323 5020 ft 110 kts 20°
2026-05-07 04:46 53.93727 48.00814 5018 ft 111 kts 20°
2026-05-07 04:46 53.94453 48.01306 5002 ft 112 kts 21°
2026-05-07 04:47 53.95169 48.01804 5012 ft 111 kts 21°
2026-05-07 04:47 53.95899 48.02100 5012 ft 110 kts 356°
2026-05-07 04:47 53.96666 48.02014 4912 ft 108 kts 355°
2026-05-07 04:47 53.97422 48.01922 4735 ft 110 kts 357°
2026-05-07 04:48 53.98195 48.01830 4529 ft 112 kts 356°
2026-05-07 04:48 53.98967 48.01747 4297 ft 111 kts 356°
2026-05-07 04:48 53.99720 48.01615 4070 ft 108 kts 355°
2026-05-07 04:48 54.00467 48.01477 3851 ft 107 kts 356°
2026-05-07 04:49 54.01197 48.01326 3640 ft 105 kts 354°
2026-05-07 04:49 54.01921 48.01159 3455 ft 105 kts 354°
2026-05-07 04:49 54.02652 48.01020 3247 ft 107 kts 355°
2026-05-07 04:49 54.03390 48.00889 3049 ft 107 kts 355°
2026-05-07 04:50 54.04122 48.00745 2932 ft 107 kts 357°
2026-05-07 04:50 54.04868 48.00641 2814 ft 107 kts 356°
2026-05-07 04:50 54.05606 48.00536 2689 ft 108 kts 358°
2026-05-07 04:50 54.06363 48.00454 2534 ft 108 kts 359°
2026-05-07 04:51 54.07108 48.00365 2370 ft 105 kts 358°
2026-05-07 04:51 54.07824 48.00279 2199 ft 104 kts
2026-05-07 04:51 54.08544 48.00209 2131 ft 103 kts 358°
2026-05-07 04:51 54.09266 48.00114 2128 ft 105 kts 358°
2026-05-07 04:52 54.10001 48.00005 2122 ft 106 kts 358°
2026-05-07 04:52 54.10735 48.00054 2125 ft 104 kts 21°
2026-05-07 04:52 54.11328 48.00735 2143 ft 103 kts 37°
2026-05-07 04:52 54.11888 48.01499 2141 ft 103 kts 38°
2026-05-07 04:53 54.12452 48.02268 2132 ft 104 kts 38°
2026-05-07 04:53 54.13015 48.03042 2138 ft 104 kts 40°
2026-05-07 04:53 54.13574 48.03845 2132 ft 104 kts 40°
2026-05-07 04:53 54.14124 48.04643 2128 ft 104 kts 39°
2026-05-07 04:54 54.14681 48.05444 2133 ft 104 kts 40°
2026-05-07 04:54 54.15224 48.06265 2134 ft 104 kts 42°
2026-05-07 04:54 54.15758 48.07075 2148 ft 103 kts 40°
2026-05-07 04:54 54.16313 48.07885 2125 ft 105 kts 40°
2026-05-07 04:55 54.16853 48.08713 2132 ft 104 kts 41°
2026-05-07 04:55 54.17389 48.09535 2135 ft 104 kts 40°
2026-05-07 04:55 54.17957 48.10310 2143 ft 104 kts 37°
2026-05-07 04:55 54.18520 48.11069 2139 ft 104 kts 39°
2026-05-07 04:56 54.19082 48.11885 2137 ft 105 kts 39°
2026-05-07 04:56 54.19631 48.12694 2091 ft 107 kts 41°
2026-05-07 04:56 54.20169 48.13570 1949 ft 105 kts 45°
2026-05-07 04:56 54.20664 48.14452 1819 ft 102 kts 43°
2026-05-07 04:57 54.21218 48.15212 1659 ft 101 kts 35°
2026-05-07 04:57 54.21778 48.15839 1561 ft 89 kts 33°
2026-05-07 04:57 54.22255 48.16444 1433 ft 85 kts 43°
2026-05-07 04:57 54.22659 48.17151 1310 ft 79 kts 47°
2026-05-07 04:58 54.22958 48.17861 1200 ft 70 kts 56°
2026-05-07 04:58 54.23270 48.18459 1128 ft 68 kts 31°
2026-05-07 04:58 54.23694 48.18854 1042 ft 70 kts 32°
2026-05-07 04:58 54.24101 48.19313 954 ft 72 kts 39°
2026-05-07 04:59 54.24475 48.19861 865 ft 69 kts 41°
2026-05-07 04:59 54.24861 48.20313 775 ft 66 kts 28°
2026-05-07 04:59 54.25267 48.20669 666 ft 67 kts 33°
2026-05-07 04:59 54.25657 48.21098 562 ft 65 kts 33°
2026-05-07 05:00 54.26033 48.21498 464 ft 61 kts 34°
2026-05-07 05:00 54.26362 48.21854 453 ft 36 kts 31°
2026-05-07 05:00 54.26536 48.22039 453 ft 31 kts 32°
2026-05-07 05:00 54.26732 48.22250 453 ft 34 kts 32°
2026-05-07 05:01 54.26935 48.22467 453 ft 25 kts 31°
2026-05-07 05:01 54.27056 48.22598 453 ft 18 kts 31°
2026-05-07 05:01 54.27120 48.22704 453 ft 11 kts 98°
2026-05-07 05:01 54.27047 48.22767 453 ft 14 kts 167°
2026-05-07 05:02 54.26993 48.22788 453 ft 0 kts 165°
2026-05-07 05:02 54.26972 48.22797 453 ft 8 kts 166°
2026-05-07 05:02 54.26919 48.22875 453 ft 12 kts 72°
2026-05-07 05:03 54.26987 48.22960 453 ft 13 kts 31°
2026-05-07 05:03 54.27015 48.23059 453 ft 11 kts 120°
2026-05-07 05:03 54.26963 48.23203 453 ft 15 kts 122°
2026-05-07 05:03 54.26980 48.23290 453 ft 10 kts 31°
2026-05-07 05:04 54.27010 48.23338 453 ft 3 kts 110°
2026-05-07 05:04 54.27005 48.23354 453 ft 0 kts 117°